| time (UTC) | temp C | wind direction | speed KPH | gust KPH | rain 1hr cm | rain 24hr cm | rain mn cm | humidity % | barometer mb |
| 20260503170627 | 8 | 343 | 9.7 | 27.4 | 0.00 | 0.48 | 0.00 | 83 | 1006.0 |
| 20260503150628 | 10 | 6 | 9.7 | 27.4 | 0.00 | 0.48 | 0.00 | 85 | 1005.2 |
| 20260503130627 | 7 | 322 | 6.4 | 20.9 | 0.00 | 0.48 | 0.00 | 92 | 1005.3 |
| 20260503110627 | 7 | 5 | 3.2 | 14.5 | 0.00 | 0.48 | 0.00 | 93 | 1006.6 |
| 20260503080628 | 8 | 343 | 3.2 | 14.5 | 0.00 | 0.48 | 0.00 | 93 | 1007.4 |
| 20260503072127 | 9 | 319 | 4.8 | 16.1 | 0.00 | 0.48 | 0.48 | 93 | 1007.8 |
| 20260503070627 | 9 | 301 | 4.8 | 12.9 | 0.00 | 0.48 | 0.48 | 93 | 1008.0 |
| 20260503055127 | 9 | 325 | 1.6 | 4.8 | 0.00 | 0.48 | 0.48 | 93 | 1008.9 |
| 20260503053629 | 10 | 303 | 1.6 | 4.8 | 0.00 | 0.48 | 0.48 | 92 | 1009.2 |
| 20260503052128 | 10 | 243 | 0.0 | 3.2 | 0.00 | 0.48 | 0.48 | 92 | 1009.7 |
| 20260503050628 | 10 | 243 | 0.0 | 3.2 | 0.00 | 0.48 | 0.48 | 93 | 1010.0 |
| 20260503045127 | 10 | 292 | 3.2 | 9.7 | 0.00 | 0.48 | 0.48 | 92 | 1010.3 |
| 20260503043629 | 10 | 210 | 0.0 | 1.6 | 0.03 | 0.48 | 0.48 | 92 | 1010.5 |
| 20260503042128 | 10 | 0 | 0.0 | 0.0 | 0.08 | 0.48 | 0.48 | 92 | 1010.9 |
| 20260503040629 | 10 | 210 | 0.0 | 1.6 | 0.13 | 0.48 | 0.48 | 92 | 1010.8 |
| 20260503035128 | 10 | 210 | 0.0 | 3.2 | 0.15 | 0.46 | 0.46 | 92 | 1010.8 |
| 20260503033628 | 10 | 0 | 0.0 | 0.0 | 0.20 | 0.46 | 0.46 | 92 | 1010.9 |
| 20260503032129 | 10 | 0 | 0.0 | 0.0 | 0.15 | 0.38 | 0.38 | 92 | 1011.1 |
| 20260503030629 | 10 | 210 | 0.0 | 1.6 | 0.18 | 0.36 | 0.36 | 92 | 1011.3 |
| 20260503025130 | 10 | 0 | 0.0 | 0.0 | 0.15 | 0.28 | 0.28 | 92 | 1011.4 |
| 20260503023629 | 10 | 0 | 0.0 | 0.0 | 0.13 | 0.23 | 0.23 | 91 | 1011.4 |
| 20260503022128 | 10 | 59 | 0.0 | 4.8 | 0.15 | 0.23 | 0.23 | 91 | 1011.6 |
| 20260503020628 | 10 | 58 | 1.6 | 4.8 | 0.10 | 0.15 | 0.15 | 91 | 1011.9 |
| 20260503015129 | 10 | 43 | 1.6 | 8.0 | 0.08 | 0.13 | 0.13 | 91 | 1012.1 |
| 20260503013629 | 10 | 43 | 1.6 | 6.4 | 0.08 | 0.10 | 0.10 | 91 | 1012.3 |
| 20260503012128 | 10 | 38 | 0.0 | 4.8 | 0.08 | 0.08 | 0.08 | 90 | 1012.3 |
| 20260503010629 | 10 | 42 | 3.2 | 9.7 | 0.05 | 0.05 | 0.05 | 90 | 1012.2 |
| 20260503005128 | 10 | 41 | 3.2 | 9.7 | 0.03 | 0.03 | 0.03 | 89 | 1012.2 |
| 20260503003628 | 10 | 42 | 4.8 | 14.5 | 0.03 | 0.03 | 0.03 | 88 | 1012.4 |
| 20260503002129 | 10 | 43 | 6.4 | 12.9 | 0.00 | 0.00 | 0.00 | 87 | 1012.3 |
| 20260503000629 | 10 | 45 | 4.8 | 14.5 | 0.00 | 0.00 | 0.00 | 85 | 1012.1 |
| 20260502235128 | 10 | 36 | 4.8 | 14.5 | 0.00 | 0.00 | 0.00 | 82 | 1012.1 |
| 20260502233630 | 10 | 37 | 6.4 | 14.5 | 0.00 | 0.00 | 0.00 | 81 | 1012.1 |
| 20260502232129 | 10 | 36 | 3.2 | 11.3 | 0.00 | 0.00 | 0.00 | 79 | 1012.2 |
| 20260502230628 | 11 | 32 | 3.2 | 9.7 | 0.00 | 0.00 | 0.00 | 79 | 1012.3 |
| 20260502225129 | 11 | 33 | 3.2 | 11.3 | 0.00 | 0.00 | 0.00 | 77 | 1012.1 |
| 20260502223629 | 11 | 32 | 3.2 | 9.7 | 0.00 | 0.00 | 0.00 | 76 | 1012.1 |
| 20260502222129 | 11 | 31 | 3.2 | 9.7 | 0.00 | 0.00 | 0.00 | 74 | 1012.1 |
| 20260502220628 | 12 | 36 | 6.4 | 16.1 | 0.00 | 0.00 | 0.00 | 72 | 1012.2 |
| 20260502215129 | 12 | 37 | 4.8 | 11.3 | 0.00 | 0.00 | 0.00 | 71 | 1012.2 |
| 20260502213629 | 12 | 41 | 9.7 | 22.5 | 0.00 | 0.00 | 0.00 | 68 | 1012.3 |
| 20260502212130 | 12 | 40 | 8.0 | 20.9 | 0.00 | 0.00 | 0.00 | 68 | 1012.4 |
| 20260502210628 | 12 | 38 | 6.4 | 16.1 | 0.00 | 0.00 | 0.00 | 65 | 1012.3 |
| 20260502205128 | 12 | 38 | 9.7 | 20.9 | 0.00 | 0.00 | 0.00 | 63 | 1012.4 |
| 20260502203629 | 12 | 35 | 8.0 | 22.5 | 0.00 | 0.00 | 0.00 | 61 | 1012.5 |
| 20260502202128 | 12 | 34 | 11.3 | 27.4 | 0.00 | 0.00 | 0.00 | 58 | 1012.8 |
| 20260502200628 | 12 | 40 | 9.7 | 25.7 | 0.00 | 0.00 | 0.00 | 59 | 1012.9 |
| 20260502195129 | 12 | 40 | 8.0 | 22.5 | 0.00 | 0.00 | 0.00 | 61 | 1012.9 |
| 20260502193629 | 12 | 43 | 6.4 | 19.3 | 0.00 | 0.00 | 0.00 | 61 | 1013.1 |
| 20260502192130 | 12 | 38 | 8.0 | 20.9 | 0.00 | 0.00 | 0.00 | 61 | 1013.2 |
| 20260502190628 | 13 | 36 | 9.7 | 22.5 | 0.00 | 0.00 | 0.00 | 55 | 1013.3 |
| 20260502185128 | 13 | 38 | 11.3 | 22.5 | 0.00 | 0.00 | 0.00 | 62 | 1013.6 |
| 20260502183629 | 13 | 37 | 9.7 | 22.5 | 0.00 | 0.00 | 0.00 | 67 | 1013.6 |
| 20260502182129 | 13 | 37 | 11.3 | 25.7 | 0.00 | 0.00 | 0.00 | 66 | 1013.5 |
| 20260502180629 | 14 | 41 | 9.7 | 27.4 | 0.00 | 0.00 | 0.00 | 58 | 1013.9 |